Simultaneous Nadir Overpasses (SNOs) Predictions

Prediction of SNOs between METOP-B and NOAA-19 Satellite Orbit:

Table of predicted SNOs for the next 14.0 days since TLE Epoch: 3/29/2019
Index Date (METOP-B) Time (METOP-B) Lat,Lon (METOP-B) SZA (METOP-B ) Date (NOAA-19) Time (NOAA-19) Lat,Lon (NOAA-19) SZA (NOAA-19 ) Distance(km) Time Diff (sec)
1 04/08/2019 12:13:16 79.14, 11.61 72.23 04/08/2019 12:12:11 79.13, 11.63 72.21 1.17 65
2 04/08/2019 13:03:57 -79.14, 178.96 107.79 04/08/2019 13:03:07 -79.12, 178.97 107.82 2.47 50
3 04/08/2019 13:54:38 79.12, -13.83 72.18 04/08/2019 13:54:12 79.13, -13.90 72.18 1.61 26
4 04/08/2019 14:45:19 -79.13, 153.53 107.83 04/08/2019 14:45:08 -79.12, 153.44 107.84 1.81 11
5 04/08/2019 15:36:00 79.11, -39.27 72.14 04/08/2019 15:36:12 79.10, -39.16 72.14 2.48 12
6 04/08/2019 16:26:41 -79.11, 128.09 107.87 04/08/2019 16:27:08 -79.09, 128.18 107.88 2.97 27
7 04/08/2019 17:17:22 79.10, -64.70 72.10 04/08/2019 17:18:13 79.10, -64.68 72.12 0.99 51
8 04/08/2019 18:08:03 -79.10, 102.65 107.92 04/08/2019 18:09:09 -79.10, 102.65 107.91 0.41 66




NCC Satellite Simultaneous Nadir Overpasses (SNOs) Prediction Service
